Year,Month,Day,Hour,Minute,Value (Times are PST for temperature in C)
2014,06,22,00,00,14.50
2014,06,22,00,01,14.50
2014,06,22,00,02,14.50
2014,06,22,00,03,14.50
2014,06,22,00,04,14.50
2014,06,22,00,05,14.50
2014,06,22,00,06,14.50
2014,06,22,00,07,14.50
2014,06,22,00,08,14.50
2014,06,22,00,09,14.50
2014,06,22,00,10,14.50
2014,06,22,00,11,14.60
2014,06,22,00,12,14.60
2014,06,22,00,13,14.60
2014,06,22,00,14,14.60
2014,06,22,00,15,14.60
2014,06,22,00,16,14.60
2014,06,22,00,17,14.60
2014,06,22,00,18,14.60
2014,06,22,00,19,14.60
2014,06,22,00,20,14.70
2014,06,22,00,21,14.70
2014,06,22,00,22,14.70
2014,06,22,00,23,14.70
2014,06,22,00,24,14.70
2014,06,22,00,25,14.70
2014,06,22,00,26,14.70
2014,06,22,00,27,14.70
2014,06,22,00,28,14.70
2014,06,22,00,29,14.70
2014,06,22,00,30,14.80
2014,06,22,00,31,14.80
2014,06,22,00,32,14.80
2014,06,22,00,33,14.80
2014,06,22,00,34,14.80
2014,06,22,00,35,14.80
2014,06,22,00,36,14.90
2014,06,22,00,37,14.90
2014,06,22,00,38,14.90
2014,06,22,00,39,14.90
2014,06,22,00,40,14.90
2014,06,22,00,41,14.90
2014,06,22,00,42,14.90
2014,06,22,00,43,14.90
2014,06,22,00,44,14.90
2014,06,22,00,45,14.90
2014,06,22,00,46,14.90
2014,06,22,00,47,14.90
2014,06,22,00,48,14.80
2014,06,22,00,49,14.80
2014,06,22,00,50,14.80
2014,06,22,00,51,14.80
2014,06,22,00,52,14.80
2014,06,22,00,53,14.80
2014,06,22,00,54,14.80
2014,06,22,00,55,14.90
2014,06,22,00,56,14.90
2014,06,22,00,57,14.90
2014,06,22,00,58,14.90
2014,06,22,00,59,15.00
2014,06,22,01,00,15.00
2014,06,22,01,01,15.00
2014,06,22,01,02,15.00
2014,06,22,01,03,15.00
2014,06,22,01,04,15.00
2014,06,22,01,05,15.00
2014,06,22,01,06,15.00
2014,06,22,01,07,15.00
2014,06,22,01,08,15.00
2014,06,22,01,09,15.00
2014,06,22,01,10,15.00
2014,06,22,01,11,15.00
2014,06,22,01,12,15.00
2014,06,22,01,13,15.00
2014,06,22,01,14,15.00
2014,06,22,01,15,15.00
2014,06,22,01,16,15.00
2014,06,22,01,17,15.00
2014,06,22,01,18,15.00
2014,06,22,01,19,14.90
2014,06,22,01,20,14.90
2014,06,22,01,21,14.90
2014,06,22,01,22,14.80
2014,06,22,01,23,14.80
2014,06,22,01,24,14.80
2014,06,22,01,25,14.80
2014,06,22,01,26,14.90
2014,06,22,01,27,14.90
2014,06,22,01,28,14.90
2014,06,22,01,29,14.90
2014,06,22,01,30,15.00
2014,06,22,01,31,14.90
2014,06,22,01,32,14.90
2014,06,22,01,33,14.90
2014,06,22,01,34,14.80
2014,06,22,01,35,14.80
2014,06,22,01,36,14.70
2014,06,22,01,37,14.60
2014,06,22,01,38,14.60
2014,06,22,01,39,14.50
2014,06,22,01,40,14.50
2014,06,22,01,41,14.40
2014,06,22,01,42,14.40
2014,06,22,01,43,14.40
2014,06,22,01,44,14.30
2014,06,22,01,45,14.30
2014,06,22,01,46,14.30
2014,06,22,01,47,14.20
2014,06,22,01,48,14.20
2014,06,22,01,49,14.20
2014,06,22,01,50,14.20
2014,06,22,01,51,14.10
2014,06,22,01,52,14.10
2014,06,22,01,53,14.10
2014,06,22,01,54,14.00
2014,06,22,01,55,14.00
2014,06,22,01,56,13.90
2014,06,22,01,57,13.90
2014,06,22,01,58,13.90
2014,06,22,01,59,13.90
2014,06,22,02,00,13.80
2014,06,22,02,01,13.80
2014,06,22,02,02,13.80
2014,06,22,02,03,13.80
2014,06,22,02,04,13.80
2014,06,22,02,05,13.70
2014,06,22,02,06,13.70
2014,06,22,02,07,13.70
2014,06,22,02,08,13.70
2014,06,22,02,09,13.70
2014,06,22,02,10,13.60
2014,06,22,02,11,13.60
2014,06,22,02,12,13.60
2014,06,22,02,13,13.60
2014,06,22,02,14,13.60
2014,06,22,02,15,13.50
2014,06,22,02,16,13.50
2014,06,22,02,17,13.50
2014,06,22,02,18,13.40
2014,06,22,02,19,13.40
2014,06,22,02,20,13.40
2014,06,22,02,21,13.40
2014,06,22,02,22,13.40
2014,06,22,02,23,13.30
2014,06,22,02,24,13.30
2014,06,22,02,25,13.30
2014,06,22,02,26,13.30
2014,06,22,02,27,13.30
2014,06,22,02,28,13.20
2014,06,22,02,29,13.20
2014,06,22,02,30,13.20
2014,06,22,02,31,13.20
2014,06,22,02,32,13.10
2014,06,22,02,33,13.10
2014,06,22,02,34,13.10
2014,06,22,02,35,13.10
2014,06,22,02,36,13.00
2014,06,22,02,37,13.00
2014,06,22,02,38,12.90
2014,06,22,02,39,12.90
2014,06,22,02,40,12.90
2014,06,22,02,41,12.80
2014,06,22,02,42,12.80
2014,06,22,02,43,12.80
2014,06,22,02,44,12.80
2014,06,22,02,45,12.70
2014,06,22,02,46,12.70
2014,06,22,02,47,12.70
2014,06,22,02,48,12.70
2014,06,22,02,49,12.70
2014,06,22,02,50,12.70
2014,06,22,02,51,12.70
2014,06,22,02,52,12.60
2014,06,22,02,53,12.60
2014,06,22,02,54,12.60
2014,06,22,02,55,12.60
2014,06,22,02,56,12.60
2014,06,22,02,57,12.50
2014,06,22,02,58,12.50
2014,06,22,02,59,12.40
2014,06,22,03,00,12.40
2014,06,22,03,01,12.40
2014,06,22,03,02,12.40
2014,06,22,03,03,12.40
2014,06,22,03,04,12.30
2014,06,22,03,05,12.30
2014,06,22,03,06,12.30
2014,06,22,03,07,12.30
2014,06,22,03,08,12.20
2014,06,22,03,09,12.20
2014,06,22,03,10,12.20
2014,06,22,03,11,12.10
2014,06,22,03,12,12.10
2014,06,22,03,13,12.10
2014,06,22,03,14,12.10
2014,06,22,03,15,12.00
2014,06,22,03,16,12.00
2014,06,22,03,17,12.00
2014,06,22,03,18,12.00
2014,06,22,03,19,11.90
2014,06,22,03,20,11.90
2014,06,22,03,21,11.90
2014,06,22,03,22,11.90
2014,06,22,03,23,11.90
2014,06,22,03,24,11.80
2014,06,22,03,25,11.80
2014,06,22,03,26,11.80
2014,06,22,03,27,11.80
2014,06,22,03,28,11.80
2014,06,22,03,29,11.80
2014,06,22,03,30,11.80
2014,06,22,03,31,11.70
2014,06,22,03,32,11.70
2014,06,22,03,33,11.70
2014,06,22,03,34,11.70
2014,06,22,03,35,11.70
2014,06,22,03,36,11.60
2014,06,22,03,37,11.60
2014,06,22,03,38,11.60
2014,06,22,03,39,11.60
2014,06,22,03,40,11.60
2014,06,22,03,41,11.60
2014,06,22,03,42,11.60
2014,06,22,03,43,11.50
2014,06,22,03,44,11.50
2014,06,22,03,45,11.50
2014,06,22,03,46,11.50
2014,06,22,03,47,11.50
2014,06,22,03,48,11.40
2014,06,22,03,49,11.40
2014,06,22,03,50,11.40
2014,06,22,03,51,11.40
2014,06,22,03,52,11.40
2014,06,22,03,53,11.40
2014,06,22,03,54,11.40
2014,06,22,03,55,11.40
2014,06,22,03,56,11.30
2014,06,22,03,57,11.30
2014,06,22,03,58,11.30
2014,06,22,03,59,11.30
2014,06,22,04,00,11.30
2014,06,22,04,01,11.30
2014,06,22,04,02,11.30
2014,06,22,04,03,11.30
2014,06,22,04,04,11.30
2014,06,22,04,05,11.30
2014,06,22,04,06,11.30
2014,06,22,04,07,11.20
2014,06,22,04,08,11.20
2014,06,22,04,09,11.20
2014,06,22,04,10,11.20
2014,06,22,04,11,11.20
2014,06,22,04,12,11.20
2014,06,22,04,13,11.20
2014,06,22,04,14,11.10
2014,06,22,04,15,11.10
2014,06,22,04,16,11.10
2014,06,22,04,17,11.10
2014,06,22,04,18,11.10
2014,06,22,04,19,11.10
2014,06,22,04,20,11.10
2014,06,22,04,21,11.10
2014,06,22,04,22,11.10
2014,06,22,04,23,11.10
2014,06,22,04,24,11.00
2014,06,22,04,25,11.00
2014,06,22,04,26,11.00
2014,06,22,04,27,11.00
2014,06,22,04,28,11.00
2014,06,22,04,29,11.00
2014,06,22,04,30,11.00
2014,06,22,04,31,11.00
2014,06,22,04,32,11.00
2014,06,22,04,33,10.90
2014,06,22,04,34,10.90
2014,06,22,04,35,10.90
2014,06,22,04,36,10.90
2014,06,22,04,37,10.90
2014,06,22,04,38,10.90
2014,06,22,04,39,10.90
2014,06,22,04,40,10.80
2014,06,22,04,41,10.80
2014,06,22,04,42,10.80
2014,06,22,04,43,10.80
2014,06,22,04,44,10.80
2014,06,22,04,45,10.80
2014,06,22,04,46,10.80
2014,06,22,04,47,10.70
2014,06,22,04,48,10.70
2014,06,22,04,49,10.70
2014,06,22,04,50,10.70
2014,06,22,04,51,10.70
2014,06,22,04,52,10.70
2014,06,22,04,53,10.70
2014,06,22,04,54,10.60
2014,06,22,04,55,10.60
2014,06,22,04,56,10.60
2014,06,22,04,57,10.60
2014,06,22,04,58,10.60
2014,06,22,04,59,10.60
2014,06,22,05,00,10.60
2014,06,22,05,01,10.60
2014,06,22,05,02,10.60
2014,06,22,05,03,10.60
2014,06,22,05,04,10.60
2014,06,22,05,05,10.60
2014,06,22,05,06,10.60
2014,06,22,05,07,10.60
2014,06,22,05,08,10.50
2014,06,22,05,09,10.50
2014,06,22,05,10,10.50
2014,06,22,05,11,10.40
2014,06,22,05,12,10.40
2014,06,22,05,13,10.40
2014,06,22,05,14,10.40
2014,06,22,05,15,10.40
2014,06,22,05,16,10.40
2014,06,22,05,17,10.40
2014,06,22,05,18,10.40
2014,06,22,05,19,10.40
2014,06,22,05,20,10.40
2014,06,22,05,21,10.40
2014,06,22,05,22,10.40
2014,06,22,05,23,10.40
2014,06,22,05,24,10.40
2014,06,22,05,25,10.40
2014,06,22,05,26,10.40
2014,06,22,05,27,10.40
2014,06,22,05,28,10.40
2014,06,22,05,29,10.40
2014,06,22,05,30,10.40
2014,06,22,05,31,10.40
2014,06,22,05,32,10.40
2014,06,22,05,33,10.40
2014,06,22,05,34,10.40
2014,06,22,05,35,10.40
2014,06,22,05,36,10.40
2014,06,22,05,37,10.40
2014,06,22,05,38,10.40
2014,06,22,05,39,10.40
2014,06,22,05,40,10.40
2014,06,22,05,41,10.40
2014,06,22,05,42,10.40
2014,06,22,05,43,10.30
2014,06,22,05,44,10.30
2014,06,22,05,45,10.30
2014,06,22,05,46,10.30
2014,06,22,05,47,10.30
2014,06,22,05,48,10.30
2014,06,22,05,49,10.30
2014,06,22,05,50,10.30
2014,06,22,05,51,10.30
2014,06,22,05,52,10.30
2014,06,22,05,53,10.30
2014,06,22,05,54,10.30
2014,06,22,05,55,10.30
2014,06,22,05,56,10.30
2014,06,22,05,57,10.30
2014,06,22,05,58,10.30
2014,06,22,05,59,10.30
2014,06,22,06,00,10.30
2014,06,22,06,01,10.30
2014,06,22,06,02,10.40
2014,06,22,06,03,10.40
2014,06,22,06,04,10.40
2014,06,22,06,05,10.40
2014,06,22,06,06,10.40
2014,06,22,06,07,10.50
2014,06,22,06,08,10.50
2014,06,22,06,09,10.60
2014,06,22,06,10,10.60
2014,06,22,06,11,10.60
2014,06,22,06,12,10.70
2014,06,22,06,13,10.70
2014,06,22,06,14,10.70
2014,06,22,06,15,10.80
2014,06,22,06,16,10.80
2014,06,22,06,17,10.90
2014,06,22,06,18,10.90
2014,06,22,06,19,11.00
2014,06,22,06,20,11.00
2014,06,22,06,21,11.10
2014,06,22,06,22,11.20
2014,06,22,06,23,11.20
2014,06,22,06,24,11.30
2014,06,22,06,25,11.30
2014,06,22,06,26,11.30
2014,06,22,06,27,11.40
2014,06,22,06,28,11.40
2014,06,22,06,29,11.40
2014,06,22,06,30,11.50
2014,06,22,06,31,11.60
2014,06,22,06,32,11.60
2014,06,22,06,33,11.60
2014,06,22,06,34,11.70
2014,06,22,06,35,11.70
2014,06,22,06,36,11.80
2014,06,22,06,37,11.80
2014,06,22,06,38,11.80
2014,06,22,06,39,11.90
2014,06,22,06,40,11.90
2014,06,22,06,41,11.90
2014,06,22,06,42,12.00
2014,06,22,06,43,12.00
2014,06,22,06,44,12.10
2014,06,22,06,45,12.10
2014,06,22,06,46,12.10
2014,06,22,06,47,12.10
2014,06,22,06,48,12.20
2014,06,22,06,49,12.20
2014,06,22,06,50,12.20
2014,06,22,06,51,12.20
2014,06,22,06,52,12.30
2014,06,22,06,53,12.30
2014,06,22,06,54,12.40
2014,06,22,06,55,12.40
2014,06,22,06,56,12.40
2014,06,22,06,57,12.50
2014,06,22,06,58,12.50
2014,06,22,06,59,12.60
2014,06,22,07,00,12.60
2014,06,22,07,01,12.60
2014,06,22,07,02,12.70
2014,06,22,07,03,12.70
2014,06,22,07,04,12.70
2014,06,22,07,05,12.70
2014,06,22,07,06,12.80
2014,06,22,07,07,12.80
2014,06,22,07,08,12.80
2014,06,22,07,09,12.90
2014,06,22,07,10,12.90
2014,06,22,07,11,13.00
2014,06,22,07,12,13.00
2014,06,22,07,13,13.10
2014,06,22,07,14,13.10
2014,06,22,07,15,13.20
2014,06,22,07,16,13.20
2014,06,22,07,17,13.20
2014,06,22,07,18,13.30
2014,06,22,07,19,13.30
2014,06,22,07,20,13.40
2014,06,22,07,21,13.40
2014,06,22,07,22,13.50
2014,06,22,07,23,13.60
2014,06,22,07,24,13.60
2014,06,22,07,25,13.70
2014,06,22,07,26,13.80
2014,06,22,07,27,13.80
2014,06,22,07,28,13.90
2014,06,22,07,29,14.00
2014,06,22,07,30,14.10
2014,06,22,07,31,14.10
2014,06,22,07,32,14.20
2014,06,22,07,33,14.30
2014,06,22,07,34,14.30
2014,06,22,07,35,14.40
2014,06,22,07,36,14.50
2014,06,22,07,37,14.60
2014,06,22,07,38,14.70
2014,06,22,07,39,14.80
2014,06,22,07,40,14.80
2014,06,22,07,41,15.00
2014,06,22,07,42,15.00
2014,06,22,07,43,15.00
2014,06,22,07,44,15.00
2014,06,22,07,45,15.00
2014,06,22,07,46,15.10
2014,06,22,07,47,15.20
2014,06,22,07,48,15.20
2014,06,22,07,49,15.20
2014,06,22,07,50,15.30
2014,06,22,07,51,15.30
2014,06,22,07,52,15.30
2014,06,22,07,53,15.30
2014,06,22,07,54,15.30
2014,06,22,07,55,15.40
2014,06,22,07,56,15.40
2014,06,22,07,57,15.40
2014,06,22,07,58,15.40
2014,06,22,07,59,15.50
2014,06,22,08,00,15.60
2014,06,22,08,01,15.60
2014,06,22,08,02,15.80
2014,06,22,08,03,15.80
2014,06,22,08,04,15.90
2014,06,22,08,05,16.00
2014,06,22,08,06,16.10
2014,06,22,08,07,16.20
2014,06,22,08,08,16.20
2014,06,22,08,09,16.30
2014,06,22,08,10,16.30
2014,06,22,08,11,16.40
2014,06,22,08,12,16.50
2014,06,22,08,13,16.50
2014,06,22,08,14,16.60
2014,06,22,08,15,16.60
2014,06,22,08,16,16.60
2014,06,22,08,17,16.60
2014,06,22,08,18,16.70
2014,06,22,08,19,16.70
2014,06,22,08,20,16.70
2014,06,22,08,21,16.70
2014,06,22,08,22,16.70
2014,06,22,08,23,16.80
2014,06,22,08,24,16.80
2014,06,22,08,25,16.80
2014,06,22,08,26,16.80
2014,06,22,08,27,16.80
2014,06,22,08,28,16.80
2014,06,22,08,29,16.80
2014,06,22,08,30,16.80
2014,06,22,08,31,16.80
2014,06,22,08,32,16.80
2014,06,22,08,33,16.80
2014,06,22,08,34,16.80
2014,06,22,08,35,16.80
2014,06,22,08,36,16.80
2014,06,22,08,37,16.80
2014,06,22,08,38,16.80
2014,06,22,08,39,16.80
2014,06,22,08,40,16.80
2014,06,22,08,41,16.70
2014,06,22,08,42,16.70
2014,06,22,08,43,16.70
2014,06,22,08,44,16.70
2014,06,22,08,45,16.70
2014,06,22,08,46,16.70
2014,06,22,08,47,16.70
2014,06,22,08,48,16.60
2014,06,22,08,49,16.60
2014,06,22,08,50,16.60
2014,06,22,08,51,16.60
2014,06,22,08,52,16.50
2014,06,22,08,53,16.50
2014,06,22,08,54,16.40
2014,06,22,08,55,16.40
2014,06,22,08,56,16.40
2014,06,22,08,57,16.40
2014,06,22,08,58,16.30
2014,06,22,08,59,16.40
2014,06,22,09,00,16.40
2014,06,22,09,01,16.30
2014,06,22,09,02,16.30
2014,06,22,09,03,16.30
2014,06,22,09,04,16.30
2014,06,22,09,05,16.30
2014,06,22,09,06,16.20
2014,06,22,09,07,16.20
2014,06,22,09,08,16.20
2014,06,22,09,09,16.20
2014,06,22,09,10,16.20
2014,06,22,09,11,16.30
2014,06,22,09,12,16.30
2014,06,22,09,13,16.40
2014,06,22,09,14,16.50
2014,06,22,09,15,16.50
2014,06,22,09,16,16.60
2014,06,22,09,17,16.60
2014,06,22,09,18,16.60
2014,06,22,09,19,16.70
2014,06,22,09,20,16.70
2014,06,22,09,21,16.80
2014,06,22,09,22,16.80
2014,06,22,09,23,16.80
2014,06,22,09,24,16.90
2014,06,22,09,25,16.90
2014,06,22,09,26,16.90
2014,06,22,09,27,16.80
2014,06,22,09,28,16.90
2014,06,22,09,29,16.90
2014,06,22,09,30,16.90
2014,06,22,09,31,16.90
2014,06,22,09,32,16.90
2014,06,22,09,33,17.00
2014,06,22,09,34,17.00
2014,06,22,09,35,17.00
2014,06,22,09,36,17.10
2014,06,22,09,37,17.10
2014,06,22,09,38,17.20
2014,06,22,09,39,17.20
2014,06,22,09,40,17.20
2014,06,22,09,41,17.20
2014,06,22,09,42,17.20
2014,06,22,09,43,17.30
2014,06,22,09,44,17.30
2014,06,22,09,45,17.30
2014,06,22,09,46,17.30
2014,06,22,09,47,17.40
2014,06,22,09,48,17.40
2014,06,22,09,49,17.40
2014,06,22,09,50,17.40
2014,06,22,09,51,17.40
2014,06,22,09,52,17.40
2014,06,22,09,53,17.50
2014,06,22,09,54,17.50
2014,06,22,09,55,17.60
2014,06,22,09,56,17.60
2014,06,22,09,57,17.60
2014,06,22,09,58,17.70
2014,06,22,09,59,17.80
2014,06,22,10,00,17.80
2014,06,22,10,01,17.80
2014,06,22,10,02,17.90
2014,06,22,10,03,17.90
2014,06,22,10,04,18.00
2014,06,22,10,05,18.00
2014,06,22,10,06,18.00
2014,06,22,10,07,18.10
2014,06,22,10,08,18.10
2014,06,22,10,09,18.10
2014,06,22,10,10,18.10
2014,06,22,10,11,18.10
2014,06,22,10,12,18.10
2014,06,22,10,13,18.10
2014,06,22,10,14,18.10
2014,06,22,10,15,18.00
2014,06,22,10,16,18.00
2014,06,22,10,17,17.90
2014,06,22,10,18,17.80
2014,06,22,10,19,17.80
2014,06,22,10,20,17.80
2014,06,22,10,21,17.80
2014,06,22,10,22,17.80
2014,06,22,10,23,17.80
2014,06,22,10,24,17.80
2014,06,22,10,25,17.90
2014,06,22,10,26,17.90
2014,06,22,10,27,17.90
2014,06,22,10,28,17.90
2014,06,22,10,29,17.90
2014,06,22,10,30,17.90
2014,06,22,10,31,17.90
2014,06,22,10,32,17.90
2014,06,22,10,33,17.90
2014,06,22,10,34,17.90
2014,06,22,10,35,17.90
2014,06,22,10,36,17.90
2014,06,22,10,37,17.90
2014,06,22,10,38,17.90
2014,06,22,10,39,17.90
2014,06,22,10,40,17.80
2014,06,22,10,41,17.90
2014,06,22,10,42,17.90
2014,06,22,10,43,17.90
2014,06,22,10,44,17.90
2014,06,22,10,45,17.90
2014,06,22,10,46,18.00
2014,06,22,10,47,18.10
2014,06,22,10,48,18.10
2014,06,22,10,49,18.20
2014,06,22,10,50,18.30
2014,06,22,10,51,18.40
2014,06,22,10,52,18.40
2014,06,22,10,53,18.50
2014,06,22,10,54,18.60
2014,06,22,10,55,18.60
2014,06,22,10,56,18.70
2014,06,22,10,57,18.70
2014,06,22,10,58,18.80
2014,06,22,10,59,18.80
2014,06,22,11,00,18.80
2014,06,22,11,01,18.70
2014,06,22,11,02,18.70
2014,06,22,11,03,18.60
2014,06,22,11,04,18.50
2014,06,22,11,05,18.50
2014,06,22,11,06,18.40
2014,06,22,11,07,18.30
2014,06,22,11,08,18.30
2014,06,22,11,09,18.20
2014,06,22,11,10,18.10
2014,06,22,11,11,17.90
2014,06,22,11,12,17.80
2014,06,22,11,13,17.70
2014,06,22,11,14,17.70
2014,06,22,11,15,17.60
2014,06,22,11,16,17.50
2014,06,22,11,17,17.40
2014,06,22,11,18,17.40
2014,06,22,11,19,17.30
2014,06,22,11,20,17.30
2014,06,22,11,21,17.30
2014,06,22,11,22,17.30
2014,06,22,11,23,17.30
2014,06,22,11,24,17.30
2014,06,22,11,25,17.30
2014,06,22,11,26,17.30
2014,06,22,11,27,17.40
2014,06,22,11,28,17.40
2014,06,22,11,29,17.50
2014,06,22,11,30,17.50
2014,06,22,11,31,17.60
2014,06,22,11,32,17.60
2014,06,22,11,33,17.60
2014,06,22,11,34,17.70
2014,06,22,11,35,17.70
2014,06,22,11,36,17.70
2014,06,22,11,37,17.80
2014,06,22,11,38,17.80
2014,06,22,11,39,17.90
2014,06,22,11,40,17.90
2014,06,22,11,41,17.90
2014,06,22,11,42,17.90
2014,06,22,11,43,18.00
2014,06,22,11,44,18.00
2014,06,22,11,45,18.00
2014,06,22,11,46,18.10
2014,06,22,11,47,18.10
2014,06,22,11,48,18.10
2014,06,22,11,49,18.10
2014,06,22,11,50,18.10
2014,06,22,11,51,18.10
2014,06,22,11,52,18.10
2014,06,22,11,53,18.10
2014,06,22,11,54,18.10
2014,06,22,11,55,18.20
2014,06,22,11,56,18.30
2014,06,22,11,57,18.40
2014,06,22,11,58,18.50
2014,06,22,11,59,18.70
2014,06,22,12,00,18.80
2014,06,22,12,01,18.90
2014,06,22,12,02,18.90
2014,06,22,12,03,18.90
2014,06,22,12,04,19.00
2014,06,22,12,05,19.10
2014,06,22,12,06,19.20
2014,06,22,12,07,19.30
2014,06,22,12,08,19.50
2014,06,22,12,09,19.60
2014,06,22,12,10,19.70
2014,06,22,12,11,19.70
2014,06,22,12,12,19.70
2014,06,22,12,13,19.70
2014,06,22,12,14,19.80
2014,06,22,12,15,19.70
2014,06,22,12,16,19.70
2014,06,22,12,17,19.70
2014,06,22,12,18,19.70
2014,06,22,12,19,19.70
2014,06,22,12,20,19.70
2014,06,22,12,21,19.70
2014,06,22,12,22,19.70
2014,06,22,12,23,19.70
2014,06,22,12,24,19.70
2014,06,22,12,25,19.70
2014,06,22,12,26,19.60
2014,06,22,12,27,19.60
2014,06,22,12,28,19.60
2014,06,22,12,29,19.50
2014,06,22,12,30,19.40
2014,06,22,12,31,19.40
2014,06,22,12,32,19.30
2014,06,22,12,33,19.30
2014,06,22,12,34,19.30
2014,06,22,12,35,19.30
2014,06,22,12,36,19.30
2014,06,22,12,37,19.20
2014,06,22,12,38,19.20
2014,06,22,12,39,19.10
2014,06,22,12,40,19.10
2014,06,22,12,41,19.10
2014,06,22,12,42,19.10
2014,06,22,12,43,19.10
2014,06,22,12,44,19.10
2014,06,22,12,45,19.10
2014,06,22,12,46,19.10
2014,06,22,12,47,19.10
2014,06,22,12,48,19.10
2014,06,22,12,49,19.10
2014,06,22,12,50,19.10
2014,06,22,12,51,19.10
2014,06,22,12,52,19.10
2014,06,22,12,53,19.10
2014,06,22,12,54,19.10
2014,06,22,12,55,19.10
2014,06,22,12,56,19.20
2014,06,22,12,57,19.20
2014,06,22,12,58,19.30
2014,06,22,12,59,19.40
2014,06,22,13,00,19.50
2014,06,22,13,01,19.50
2014,06,22,13,02,19.50
2014,06,22,13,03,19.60
2014,06,22,13,04,19.60
2014,06,22,13,05,19.60
2014,06,22,13,06,19.60
2014,06,22,13,07,19.60
2014,06,22,13,08,19.60
2014,06,22,13,09,19.60
2014,06,22,13,10,19.70
2014,06,22,13,11,19.60
2014,06,22,13,12,19.60
2014,06,22,13,13,19.60
2014,06,22,13,14,19.60
2014,06,22,13,15,19.60
2014,06,22,13,16,19.60
2014,06,22,13,17,19.60
2014,06,22,13,18,19.60
2014,06,22,13,19,19.70
2014,06,22,13,20,19.70
2014,06,22,13,21,19.70
2014,06,22,13,22,19.70
2014,06,22,13,23,19.80
2014,06,22,13,24,19.80
2014,06,22,13,25,19.80
2014,06,22,13,26,19.90
2014,06,22,13,27,19.90
2014,06,22,13,28,19.90
2014,06,22,13,29,19.90
2014,06,22,13,30,19.90
2014,06,22,13,31,19.90
2014,06,22,13,32,19.90
2014,06,22,13,33,19.90
2014,06,22,13,34,20.00
2014,06,22,13,35,20.00
2014,06,22,13,36,19.90
2014,06,22,13,37,19.90
2014,06,22,13,38,19.90
2014,06,22,13,39,19.90
2014,06,22,13,40,19.90
2014,06,22,13,41,19.80
2014,06,22,13,42,19.80
2014,06,22,13,43,19.80
2014,06,22,13,44,19.90
2014,06,22,13,45,19.90
2014,06,22,13,46,20.00
2014,06,22,13,47,20.00
2014,06,22,13,48,20.00
2014,06,22,13,49,20.00
2014,06,22,13,50,20.10
2014,06,22,13,51,20.10
2014,06,22,13,52,20.10
2014,06,22,13,53,20.20
2014,06,22,13,54,20.30
2014,06,22,13,55,20.40
2014,06,22,13,56,20.50
2014,06,22,13,57,20.70
2014,06,22,13,58,20.70
2014,06,22,13,59,20.80
2014,06,22,14,00,20.90
2014,06,22,14,01,20.90
2014,06,22,14,02,21.00
2014,06,22,14,03,21.00
2014,06,22,14,04,21.10
2014,06,22,14,05,21.10
2014,06,22,14,06,21.10
2014,06,22,14,07,21.10
2014,06,22,14,08,21.10
2014,06,22,14,09,21.00
2014,06,22,14,10,21.00
2014,06,22,14,11,21.00
2014,06,22,14,12,20.90
2014,06,22,14,13,21.00
2014,06,22,14,14,20.90
2014,06,22,14,15,20.90
2014,06,22,14,16,20.90
2014,06,22,14,17,21.00
2014,06,22,14,18,21.10
2014,06,22,14,19,21.10
2014,06,22,14,20,21.00
2014,06,22,14,21,20.90
2014,06,22,14,22,20.90
2014,06,22,14,23,20.90
2014,06,22,14,24,20.90
2014,06,22,14,25,21.00
2014,06,22,14,26,21.10
2014,06,22,14,27,21.20
2014,06,22,14,28,21.10
2014,06,22,14,29,21.00
2014,06,22,14,30,20.70
2014,06,22,14,31,20.60
2014,06,22,14,32,20.60
2014,06,22,14,33,20.60
2014,06,22,14,34,20.60
2014,06,22,14,35,20.70
2014,06,22,14,36,20.70
2014,06,22,14,37,20.70
2014,06,22,14,38,20.80
2014,06,22,14,39,20.80
2014,06,22,14,40,20.80
2014,06,22,14,41,20.80
2014,06,22,14,42,20.80
2014,06,22,14,43,20.80
2014,06,22,14,44,20.80
2014,06,22,14,45,20.80
2014,06,22,14,46,20.80
2014,06,22,14,47,20.80
2014,06,22,14,48,20.80
2014,06,22,14,49,20.80
2014,06,22,14,50,20.90
2014,06,22,14,51,20.90
2014,06,22,14,52,21.00
2014,06,22,14,53,21.00
2014,06,22,14,54,21.20
2014,06,22,14,55,21.30
2014,06,22,14,56,21.40
2014,06,22,14,57,21.40
2014,06,22,14,58,21.50
2014,06,22,14,59,21.60
2014,06,22,15,00,21.60
2014,06,22,15,01,21.60
2014,06,22,15,02,21.60
2014,06,22,15,03,21.70
2014,06,22,15,04,21.70
2014,06,22,15,05,21.70
2014,06,22,15,06,21.70
2014,06,22,15,07,21.80
2014,06,22,15,08,21.80
2014,06,22,15,09,21.80
2014,06,22,15,10,21.80
2014,06,22,15,11,21.70
2014,06,22,15,12,21.60
2014,06,22,15,13,21.50
2014,06,22,15,14,21.40
2014,06,22,15,15,21.50
2014,06,22,15,16,21.60
2014,06,22,15,17,21.60
2014,06,22,15,18,21.70
2014,06,22,15,19,21.70
2014,06,22,15,20,21.80
2014,06,22,15,21,21.80
2014,06,22,15,22,21.80
2014,06,22,15,23,21.80
2014,06,22,15,24,21.80
2014,06,22,15,25,21.70
2014,06,22,15,26,21.70
2014,06,22,15,27,21.60
2014,06,22,15,28,21.60
2014,06,22,15,29,21.70
2014,06,22,15,30,21.70
2014,06,22,15,31,21.80
2014,06,22,15,32,21.80
2014,06,22,15,33,21.70
2014,06,22,15,34,21.80
2014,06,22,15,35,21.80
2014,06,22,15,36,21.70
2014,06,22,15,37,21.80
2014,06,22,15,38,21.80
2014,06,22,15,39,21.80
2014,06,22,15,40,21.80
2014,06,22,15,41,21.90
2014,06,22,15,42,21.90
2014,06,22,15,43,22.00
2014,06,22,15,44,22.00
2014,06,22,15,45,22.00
2014,06,22,15,46,22.00
2014,06,22,15,47,22.10
2014,06,22,15,48,22.10
2014,06,22,15,49,22.10
2014,06,22,15,50,22.20
2014,06,22,15,51,22.20
2014,06,22,15,52,22.20
2014,06,22,15,53,22.20
2014,06,22,15,54,22.10
2014,06,22,15,55,22.10
2014,06,22,15,56,22.20
2014,06,22,15,57,22.20
2014,06,22,15,58,22.40
2014,06,22,15,59,22.50
2014,06,22,16,00,22.70
2014,06,22,16,01,22.70
2014,06,22,16,02,22.80
2014,06,22,16,03,22.90
2014,06,22,16,04,22.90
2014,06,22,16,05,23.00
2014,06,22,16,06,23.00
2014,06,22,16,07,23.00
2014,06,22,16,08,23.10
2014,06,22,16,09,23.20
2014,06,22,16,10,23.20
2014,06,22,16,11,23.30
2014,06,22,16,12,23.40
2014,06,22,16,13,23.60
2014,06,22,16,14,23.70
2014,06,22,16,15,23.70
2014,06,22,16,16,23.70
2014,06,22,16,17,23.70
2014,06,22,16,18,23.70
2014,06,22,16,19,23.70
2014,06,22,16,20,23.60
2014,06,22,16,21,23.60
2014,06,22,16,22,23.50
2014,06,22,16,23,23.50
2014,06,22,16,24,23.50
2014,06,22,16,25,23.60
2014,06,22,16,26,23.60
2014,06,22,16,27,23.70
2014,06,22,16,28,23.70
2014,06,22,16,29,23.80
2014,06,22,16,30,23.90
2014,06,22,16,31,24.00
2014,06,22,16,32,24.00
2014,06,22,16,33,24.10
2014,06,22,16,34,24.10
2014,06,22,16,35,24.00
2014,06,22,16,36,24.00
2014,06,22,16,37,24.00
2014,06,22,16,38,24.00
2014,06,22,16,39,24.00
2014,06,22,16,40,24.00
2014,06,22,16,41,24.00
2014,06,22,16,42,23.90
2014,06,22,16,43,23.90
2014,06,22,16,44,23.90
2014,06,22,16,45,23.90
2014,06,22,16,46,23.90
2014,06,22,16,47,23.80
2014,06,22,16,48,23.70
2014,06,22,16,49,23.70
2014,06,22,16,50,23.80
2014,06,22,16,51,23.80
2014,06,22,16,52,23.80
2014,06,22,16,53,23.90
2014,06,22,16,54,24.10
2014,06,22,16,55,24.20
2014,06,22,16,56,24.30
2014,06,22,16,57,24.40
2014,06,22,16,58,24.40
2014,06,22,16,59,24.50
2014,06,22,17,00,24.40
2014,06,22,17,01,24.30
2014,06,22,17,02,24.30
2014,06,22,17,03,24.30
2014,06,22,17,04,24.30
2014,06,22,17,05,24.40
2014,06,22,17,06,24.40
2014,06,22,17,07,24.40
2014,06,22,17,08,24.40
2014,06,22,17,09,24.30
2014,06,22,17,10,24.30
2014,06,22,17,11,24.30
2014,06,22,17,12,24.40
2014,06,22,17,13,24.40
2014,06,22,17,14,24.50
2014,06,22,17,15,24.60
2014,06,22,17,16,24.60
2014,06,22,17,17,24.70
2014,06,22,17,18,24.70
2014,06,22,17,19,24.70